Погода в Белозерске

Погода в Белозерске : погода сейчас, прогноз погоды и архив. Всё, что Вы хотите узнать о погоде в Белозерске!

Поиск расширенной информации на нашем сайте:

Другие новости

Новости СМИ2

Главная страница сайта

Новости сайта

03.07.2017

Напоминаем, что на нашем специализированном сайте Метеоцентр.Азия вы можете получить высокодетализированные автоматические прогнозы погоды по пунктам России, СНГ и мира в авиационном формате (включающие направление и скорость ветра, видимость, явления погоды, количество и форму облачности, нижнюю и верхнюю границу облачности).

Рекомендуем: серьезно купить датчик движения цена

Погода в Белозерске - сегодня

Время (UTC), дата Ветер
(°,м/с) 
Видим.   Явления Облачность Т
(°С)
Тd
(°С)
f(%) Тe
(°С)
Pmin
(гПа)
dP
(гПа)
Po
(мм)
O2
(г/м3)
Тmin Tmax R s Состояние
почвы
03 20.10.17 330 (СЗ) 10 км    10/10 1080 м 
[Sc]
+2.2 -0.1 85 +2  1018.2  1.2  751  300  +2.1    0.0     
06 20.10.17 310 (СЗ) 10 км    10/10 450 м кучево-дожд. 
[Cb calv]
+2.3 +0.2 86 +3  1019.3  752  300  +1.9         
09 20.10.17 310 (СЗ) 10 км    10/10 450 м кучево-дожд. 
[Cb calv]
+3.2 +0.1 80 +3  1020  0.8  753  300           
12 20.10.17 340 (С) 10 км    9/4 1000 м средняя 
[Sc|Ac trans]
+3.7 -2.2 65 +3  1019.9  -0.1  753  299           
15 20.10.17 270 (З) 10 км    9/6 540 м кучево-дожд., средняя, верхняя 
[Cb calv|Ac trans|Ci fib]
+0.4 -2 84 +1  1020.3  0.3  753  303    +4       
18 20.10.17 360 (С) 10 км    4/4 1000 м 
[Sc]
+1.8 -1.9 76 +1  1020.2  -0.1  753  302           
21 20.10.17 350 (С) 10 км    8/8 800 м 
[Sc]
+1.4 -1.3 82 +1  1020.4  0.2  753  302           
00 21.10.17 360 (С) 10 км    8/8 750 м 
[Sc]
+0.9 -2 81 1020.4  753  303           
03 21.10.17 340 (С) 10 км  в посл. час снег  9/9 900 м 
[Sc]
+0.1 -2.3 84 -1  1020.3  -0.2  753  304  -0.1    0.0     
06 21.10.17 320 (СЗ) 10 км  {снег}  5/5 1000 м 
[Sc]
-0.2 -2.9 82 -1  1020.8  0.5  753  304  -0.6         
09 21.10.17 320 (СЗ) 10 км    5/5 1000 м 
[Sc]
+1.7 -3.2 70 1020.7  753  302           
12 21.10.17 310 (СЗ) 4000 м  слаб. снег  8/8 1170 м 
[Sc]
+1.5 -2.5 75 1019.8  -0.9  753  302           
15 21.10.17 280 (З) 10 км  {снег}  8/8 960 м 
[Sc]
+0.9 -3 75 1019  -0.8  752  302    +2.3  0.0     
18 21.10.17 270 (З) 10 км  {снег}  ясно 
-1.5 -4.7 79 -2  1018.1  -1.1  751  305           
21 21.10.17 270 (З) 10 км    ясно 
-1.8 -5.1 78 -3  1016.8  -1.3  750  305           
00 22.10.17 260 (З) 10 км    ясно 
-1.7 -5.2 77 -3  1015.1  -1.6  749  304           
03 22.10.17 270 (З) 4000 м  слаб. снег  10/10 400 м 
[Frnb|Ns]
-1.7 -3.4 88 -3  1014.2  -0.9  748  304  -2.6    0.4  равномерный
сухой снег
100% 
06 22.10.17 270 (З) 4000 м  снег  10/10 330 м 
[Frnb|Ns]
-1.6 -2.7 92 -3  1013.8  -0.4  748  303           
09 22.10.17 260 (З) 4000 м  слаб. снег  10/10 400 м 
[Frnb|Ns]
-0.3 -1.9 89 -1  1013.6  -0.1  748  302           
12 22.10.17 260 (З) 4000 м  слаб. снег  10/8 480 м средняя 
[Frnb|As op]
+0.1 -1.5 89 +1  1013.4  -0.2  748  301           
15 22.10.17 290 (З) 10 км  в посл. час крупа{ливн. осадки, снег}  9/8 840 м кучево-дожд., средняя 
[Cb calv|Ac trans]
-0.4 -1.8 90 1013.8  0.4  748  302    +0.2     
18 22.10.17 360 (С) 4000 м  слаб. ливневой снег  9/8 750 м кучево-дожд., средняя 
[Cb calv|Ac trans]
-0.2 -2.3 86 -2  1014.5  0.7  749  302           
21 22.10.17 050 (СВ) 10 км  {ливн. осадки}  10/8 720 м кучево-дожд., средняя 
[Cb calv|Ac und]
-0.2 -3.2 80 -2  1015.8  1.3  750  303           
00 23.10.17 040 (СВ) 10 км  {ливн. осадки}  10/8 720 м кучево-дожд., средняя 
[Cb calv|Ac und]
-0.6 -3.6 80 -1  1017.5  1.6  751  304           
03 23.10.17 040 (СВ) 4000 м  слаб. ливневой снег  10/8 540 м кучево-дожд., средняя 
[Cb calv|Ac und]
-1.1 -3.8 82 -2  1019.3  1.7  752  305  -1.1    0.6  равномерный
сухой снег
100% 
Время (UTC), дата Ветер
(°,м/с) 
Видим.   Явления Облачность Т
(°С)
Тd
(°С)
f(%) Тe
(°С)
Pmin
(гПа)
dP
(гПа)
Po
(мм)
O2
(г/м3)
Тmin Tmax R s Состояние
почвы

Для получения пояснительной информации подведите курсор к названию столбца.

ПОГОДА в Белозерске - архив

Всё, что Вы хотите узнать о погоде в Белозерске - удобно и подробно!

Выберите нужную дату (начиная с 1 января 2015* года) и нажмите кнопку "Найти".
Будут отображены архивные сводки погоды по пункту Белозерск, начиная с указанной даты.


Отображать данные в формате CSV (для использования в таблицах Excel)


Внимание! Наш архив погоды предназначен исключительно для личного некоммерческого использования в познавательных целях. Если Вам необходимы официальные справки о состоянии погоды (для производственных, юридических, коммерческих и т.п. целей), обращайтесь в органы Росгидромета.

*Примечание: данная дата относится к архиву по метеостанциям СССР (Россия, СНГ, Балтия).
Архив по метеостанциям Зарубежной Европы и Азии (кроме Китая) хранится 10 дней, по другим регионам земного шара (Китай, Африка, Америка, Австралия, Океания) - 1 день.

Белозерск - район местоположения метеостанции


Название, широта, долгота, высота метеостанции:
Белозерск 60°ш. 37.8°д. 131 м над ур. моря [Российская Федерация]

Дополнительная информация

В oтличие oт бoльшинства пoгoдных сайтoв мы публикуем пoдрoбную метеoинфoрмацию в детальнoм прoфессиoнальнoм фoрмате.

Характеристики температуры и влажнoсти вoздуха измеряются на высoте 2 м в тени вдали oт зданий и деревьев.
Скoрoсть ветра измеряется на высoте 10 м (на урoвне рoста челoвека скoрoсть ветра ниже в 1.5-2 раза). Если метеoстанция нахoдится в гoрoде или в лесу, тo скoрoсть ветра занижена на 2-4 м/с пo сравнению с oткрытым местoм. Скoрoсть ветра над акватoриями крупных рек и oзёр, а также на вершинах хoлмoв на 2-5 м/с выше, чем в oбычных услoвиях.
Атмoсфернoе давление в разных тoчках местнoсти мoжет значительнo oтличаться oт давления на метеoстанции, в зависимoсти oт услoвий рельефа (при пoдъёме на 10 м давление пoнижается примернo на 1 мм рт.ст.).